Simultaneous Nadir Overpasses (SNOs) Predictions

Prediction of SNOs between METOP-B and NOAA-19 Satellite Orbit:

Table of predicted SNOs for the next 14.0 days since TLE Epoch: 5/17/2013
Index Date (METOP-B) Time (METOP-B) Lat,Lon (METOP-B) SZA (METOP-B ) Date (NOAA-19) Time (NOAA-19) Lat,Lon (NOAA-19) SZA (NOAA-19 ) Distance(km) Time Diff (sec)
1 05/24/2013 22:04:47 74.02,-156.14 53.06 05/24/2013 22:03:41 73.99,-159.31 53.14 97.19 66
2 05/24/2013 22:55:40 -73.44, 9.82 127.50 05/24/2013 22:54:26 -73.42, 9.33 127.48 15.66 74
3 05/24/2013 23:46:23 73.30, 176.84 52.37 05/24/2013 23:45:31 73.28, 176.89 52.35 3.25 52
4 05/25/2013 00:37:05 -73.27, -15.90 127.67 05/25/2013 00:36:28 -73.30, -15.90 127.63 3.12 37
5 05/25/2013 01:27:46 73.23, 151.35 52.30 05/25/2013 01:27:35 73.25, 151.44 52.31 3.23 11
6 05/25/2013 02:18:27 -73.25, -41.28 127.70 05/25/2013 02:18:32 -73.27, -41.35 127.67 3.09 5
7 05/25/2013 03:09:08 73.21, 125.97 52.27 05/25/2013 03:09:39 73.22, 125.98 52.27 0.91 31
8 05/25/2013 03:59:50 -73.18, -66.77 127.77 05/25/2013 04:00:35 -73.19, -66.69 127.77 2.89 45
9 05/25/2013 04:50:30 73.19, 100.59 52.24 05/25/2013 04:51:43 73.19, 100.52 52.23 1.95 73
10 05/25/2013 05:41:21 -72.71, -93.12 128.22 05/25/2013 05:42:30 -72.72, -91.17 128.29 64.36 69




NCC Satellite Simultaneous Nadir Overpasses (SNOs) Prediction Service
